| time (UTC) | temp C | wind direction | speed KPH | gust KPH | rain 1hr cm | rain 24hr cm | rain mn cm | humidity % | barometer mb |
| 20260505112004 | 18 | 342 | 3.2 | 6.4 | 0.00 | 0.00 | 0.00 | 88 | 1016.1 |
| 20260505111504 | 18 | 337 | 3.2 | 6.4 | 0.00 | 0.00 | 0.00 | 88 | 1016.0 |
| 20260505111026 | 18 | 323 | 1.6 | 6.4 | 0.00 | 0.00 | 0.00 | 87 | 1016.1 |
| 20260505110504 | 18 | 322 | 1.6 | 4.8 | 0.00 | 0.00 | 0.00 | 87 | 1015.8 |
| 20260505101504 | 18 | 337 | 3.2 | 8.0 | 0.00 | 0.00 | 0.00 | 87 | 1015.7 |
| 20260505101004 | 18 | 305 | 1.6 | 6.4 | 0.00 | 0.00 | 0.00 | 87 | 1015.6 |
| 20260505100504 | 18 | 301 | 1.6 | 4.8 | 0.00 | 0.00 | 0.00 | 87 | 1015.7 |
| 20260505100005 | 18 | 331 | 1.6 | 4.8 | 0.00 | 0.00 | 0.00 | 87 | 1015.6 |
| 20260505095526 | 18 | 313 | 1.6 | 6.4 | 0.00 | 0.00 | 0.00 | 87 | 1015.6 |
| 20260505095004 | 18 | 308 | 1.6 | 6.4 | 0.00 | 0.00 | 0.00 | 87 | 1015.6 |
| 20260505094505 | 18 | 331 | 1.6 | 6.4 | 0.00 | 0.00 | 0.00 | 86 | 1015.3 |
| 20260505094004 | 18 | 317 | 1.6 | 4.8 | 0.00 | 0.00 | 0.00 | 86 | 1015.2 |
| 20260505093525 | 18 | 310 | 1.6 | 4.8 | 0.00 | 0.00 | 0.00 | 86 | 1015.3 |
| 20260505093005 | 18 | 287 | 1.6 | 6.4 | 0.00 | 0.00 | 0.00 | 86 | 1015.2 |
| 20260505092504 | 18 | 312 | 1.6 | 6.4 | 0.00 | 0.00 | 0.00 | 86 | 1015.2 |
| 20260505092004 | 18 | 327 | 1.6 | 4.8 | 0.00 | 0.00 | 0.00 | 86 | 1015.2 |
| 20260505091505 | 18 | 329 | 1.6 | 4.8 | 0.00 | 0.00 | 0.00 | 86 | 1015.0 |
| 20260505091004 | 18 | 350 | 3.2 | 6.4 | 0.00 | 0.00 | 0.00 | 86 | 1015.1 |
| 20260505090504 | 18 | 344 | 3.2 | 6.4 | 0.00 | 0.00 | 0.00 | 86 | 1015.0 |
| 20260505090004 | 18 | 329 | 3.2 | 6.4 | 0.00 | 0.00 | 0.00 | 86 | 1015.0 |
| 20260505085504 | 18 | 320 | 1.6 | 6.4 | 0.00 | 0.00 | 0.00 | 86 | 1015.1 |
| 20260505085004 | 18 | 326 | 1.6 | 6.4 | 0.00 | 0.00 | 0.00 | 86 | 1015.1 |
| 20260505084504 | 18 | 329 | 1.6 | 6.4 | 0.00 | 0.00 | 0.00 | 86 | 1015.1 |
| 20260505084025 | 18 | 319 | 1.6 | 6.4 | 0.00 | 0.00 | 0.00 | 86 | 1015.1 |
| 20260505083504 | 18 | 320 | 1.6 | 3.2 | 0.00 | 0.00 | 0.00 | 86 | 1015.2 |
| 20260505083006 | 18 | 321 | 1.6 | 4.8 | 0.00 | 0.00 | 0.00 | 85 | 1015.1 |
| 20260505082504 | 18 | 316 | 1.6 | 6.4 | 0.00 | 0.00 | 0.00 | 85 | 1015.3 |
| 20260505082004 | 19 | 320 | 1.6 | 6.4 | 0.00 | 0.00 | 0.00 | 85 | 1015.2 |
| 20260505081525 | 19 | 325 | 1.6 | 6.4 | 0.00 | 0.00 | 0.00 | 85 | 1015.1 |
| 20260505081005 | 19 | 329 | 1.6 | 6.4 | 0.00 | 0.00 | 0.00 | 85 | 1015.2 |
| 20260505080504 | 19 | 326 | 1.6 | 6.4 | 0.00 | 0.00 | 0.00 | 84 | 1015.2 |
| 20260505080004 | 19 | 318 | 1.6 | 6.4 | 0.00 | 0.00 | 0.00 | 84 | 1015.4 |
| 20260505075525 | 19 | 324 | 1.6 | 6.4 | 0.00 | 0.00 | 0.00 | 84 | 1015.4 |
| 20260505075004 | 19 | 322 | 1.6 | 6.4 | 0.00 | 0.00 | 0.00 | 84 | 1015.4 |
| 20260505074505 | 19 | 312 | 1.6 | 6.4 | 0.00 | 0.00 | 0.00 | 84 | 1015.4 |
| 20260505074004 | 19 | 324 | 1.6 | 6.4 | 0.00 | 0.00 | 0.00 | 83 | 1015.5 |
| 20260505073504 | 19 | 316 | 1.6 | 4.8 | 0.00 | 0.00 | 0.00 | 83 | 1015.4 |
| 20260505073004 | 20 | 307 | 1.6 | 4.8 | 0.00 | 0.00 | 0.00 | 83 | 1015.4 |
| 20260505072505 | 20 | 314 | 1.6 | 4.8 | 0.00 | 0.00 | 0.00 | 83 | 1015.6 |
| 20260505072004 | 20 | 331 | 1.6 | 4.8 | 0.00 | 0.00 | 0.00 | 83 | 1015.3 |
| 20260505071505 | 20 | 335 | 1.6 | 3.2 | 0.00 | 0.00 | 0.00 | 83 | 1015.4 |
| 20260505071004 | 20 | 322 | 1.6 | 6.4 | 0.00 | 0.00 | 0.00 | 83 | 1015.4 |
| 20260505070505 | 20 | 319 | 1.6 | 6.4 | 0.00 | 0.00 | 0.00 | 82 | 1015.4 |
| 20260505070026 | 20 | 321 | 1.6 | 6.4 | 0.00 | 0.00 | 0.00 | 82 | 1015.6 |
| 20260505065504 | 20 | 322 | 1.6 | 6.4 | 0.00 | 0.00 | 0.00 | 82 | 1015.3 |
| 20260505065025 | 20 | 317 | 1.6 | 4.8 | 0.00 | 0.00 | 0.00 | 82 | 1015.4 |
| 20260505064504 | 20 | 316 | 1.6 | 4.8 | 0.00 | 0.00 | 0.00 | 82 | 1015.6 |
| 20260505064004 | 20 | 307 | 1.6 | 4.8 | 0.00 | 0.00 | 0.00 | 81 | 1015.6 |
| 20260505063504 | 20 | 304 | 1.6 | 4.8 | 0.00 | 0.00 | 0.00 | 81 | 1015.8 |
| 20260505063025 | 20 | 311 | 1.6 | 6.4 | 0.00 | 0.00 | 0.00 | 81 | 1016.1 |
| 20260505062504 | 20 | 314 | 1.6 | 6.4 | 0.00 | 0.00 | 0.00 | 80 | 1015.9 |
| 20260505062004 | 21 | 274 | 0.0 | 3.2 | 0.00 | 0.00 | 0.00 | 80 | 1016.1 |
| 20260505061505 | 21 | 265 | 0.0 | 3.2 | 0.00 | 0.00 | 0.00 | 80 | 1016.3 |
| 20260505061005 | 21 | 286 | 0.0 | 3.2 | 0.00 | 0.00 | 0.00 | 79 | 1016.2 |
| 20260505060504 | 21 | 301 | 0.0 | 3.2 | 0.00 | 0.00 | 0.00 | 79 | 1016.2 |
| 20260505060004 | 21 | 319 | 1.6 | 4.8 | 0.00 | 0.00 | 0.00 | 79 | 1016.0 |
| 20260505055504 | 21 | 324 | 1.6 | 4.8 | 0.00 | 0.00 | 0.00 | 78 | 1016.1 |
| 20260505055025 | 21 | 330 | 1.6 | 4.8 | 0.00 | 0.00 | 0.00 | 78 | 1016.3 |
| 20260505054504 | 21 | 337 | 1.6 | 4.8 | 0.00 | 0.00 | 0.00 | 78 | 1015.9 |
| 20260505054004 | 21 | 325 | 1.6 | 6.4 | 0.00 | 0.00 | 0.00 | 77 | 1016.2 |
| 20260505053504 | 21 | 341 | 1.6 | 6.4 | 0.00 | 0.00 | 0.00 | 77 | 1016.2 |
| 20260505053005 | 21 | 357 | 1.6 | 6.4 | 0.00 | 0.00 | 0.00 | 77 | 1016.3 |
| 20260505052504 | 21 | 340 | 1.6 | 6.4 | 0.00 | 0.00 | 0.00 | 77 | 1016.2 |
| 20260505052004 | 21 | 328 | 1.6 | 4.8 | 0.00 | 0.00 | 0.00 | 77 | 1016.4 |
| 20260505051504 | 21 | 334 | 1.6 | 4.8 | 0.00 | 0.00 | 0.00 | 77 | 1016.3 |
| 20260505051005 | 21 | 338 | 1.6 | 4.8 | 0.00 | 0.00 | 0.00 | 77 | 1016.2 |
| 20260505050504 | 22 | 332 | 1.6 | 4.8 | 0.00 | 0.00 | 0.00 | 76 | 1016.4 |
| 20260505041504 | 22 | 16 | 1.6 | 6.4 | 0.00 | 0.00 | 0.00 | 75 | 1016.7 |
| 20260505041004 | 22 | 352 | 3.2 | 8.0 | 0.00 | 0.00 | 0.00 | 75 | 1016.8 |
| 20260505040504 | 22 | 338 | 3.2 | 8.0 | 0.00 | 0.00 | 0.00 | 75 | 1016.6 |
| 20260505040005 | 22 | 337 | 3.2 | 6.4 | 0.00 | 0.00 | 0.00 | 75 | 1016.7 |
| 20260505035504 | 22 | 342 | 1.6 | 6.4 | 0.00 | 0.00 | 0.00 | 75 | 1016.8 |
| 20260505035004 | 22 | 347 | 1.6 | 6.4 | 0.00 | 0.00 | 0.00 | 75 | 1016.7 |
| 20260505034504 | 22 | 349 | 1.6 | 4.8 | 0.00 | 0.00 | 0.00 | 76 | 1016.8 |
| 20260505034025 | 22 | 5 | 1.6 | 4.8 | 0.00 | 0.00 | 0.00 | 75 | 1017.1 |
| 20260505033526 | 22 | 350 | 1.6 | 4.8 | 0.00 | 0.00 | 0.00 | 74 | 1016.9 |
| 20260505033004 | 22 | 344 | 3.2 | 6.4 | 0.00 | 0.00 | 0.00 | 74 | 1017.0 |
| 20260505032504 | 22 | 342 | 3.2 | 9.7 | 0.00 | 0.00 | 0.00 | 73 | 1016.9 |
| 20260505032004 | 22 | 339 | 3.2 | 9.7 | 0.00 | 0.00 | 0.00 | 73 | 1016.9 |
| 20260505031504 | 22 | 343 | 3.2 | 6.4 | 0.00 | 0.00 | 0.00 | 73 | 1016.7 |
| 20260505031004 | 23 | 357 | 1.6 | 6.4 | 0.00 | 0.00 | 0.00 | 72 | 1016.9 |
| 20260505030525 | 23 | 360 | 1.6 | 8.0 | 0.00 | 0.00 | 0.00 | 72 | 1017.0 |
| 20260505030026 | 23 | 352 | 3.2 | 8.0 | 0.00 | 0.00 | 0.00 | 72 | 1017.0 |
| 20260505025504 | 23 | 2 | 3.2 | 11.3 | 0.00 | 0.00 | 0.00 | 72 | 1016.9 |
| 20260505025004 | 23 | 5 | 3.2 | 11.3 | 0.00 | 0.00 | 0.00 | 72 | 1017.0 |
| 20260505024504 | 23 | 341 | 3.2 | 9.7 | 0.00 | 0.00 | 0.00 | 72 | 1016.8 |
| 20260505024004 | 23 | 339 | 3.2 | 9.7 | 0.00 | 0.00 | 0.00 | 72 | 1016.8 |
| 20260505023505 | 23 | 3 | 3.2 | 8.0 | 0.00 | 0.00 | 0.00 | 72 | 1016.7 |
| 20260505023025 | 23 | 3 | 3.2 | 8.0 | 0.00 | 0.00 | 0.00 | 72 | 1016.7 |
| 20260505022504 | 23 | 346 | 1.6 | 6.4 | 0.00 | 0.00 | 0.00 | 72 | 1016.7 |
| 20260505022025 | 23 | 359 | 1.6 | 6.4 | 0.00 | 0.00 | 0.00 | 71 | 1016.7 |
| 20260505021526 | 23 | 358 | 3.2 | 9.7 | 0.00 | 0.00 | 0.00 | 71 | 1016.6 |
| 20260505021025 | 23 | 356 | 3.2 | 9.7 | 0.00 | 0.00 | 0.00 | 71 | 1016.5 |
| 20260505020504 | 23 | 14 | 1.6 | 6.4 | 0.00 | 0.00 | 0.00 | 71 | 1016.7 |
| 20260505020025 | 23 | 5 | 3.2 | 8.0 | 0.00 | 0.00 | 0.00 | 70 | 1016.5 |
| 20260505015504 | 23 | 1 | 3.2 | 8.0 | 0.00 | 0.00 | 0.00 | 70 | 1016.5 |
| 20260505015004 | 23 | 357 | 3.2 | 8.0 | 0.00 | 0.00 | 0.00 | 70 | 1016.4 |
| 20260505014504 | 23 | 355 | 3.2 | 8.0 | 0.00 | 0.00 | 0.00 | 70 | 1016.5 |
| 20260505014005 | 23 | 1 | 3.2 | 8.0 | 0.00 | 0.00 | 0.00 | 70 | 1016.2 |
| 20260505013525 | 24 | 5 | 1.6 | 8.0 | 0.00 | 0.00 | 0.00 | 71 | 1016.2 |
| 20260505013006 | 24 | 350 | 1.6 | 6.4 | 0.00 | 0.00 | 0.00 | 71 | 1016.2 |
| 20260505012504 | 24 | 340 | 1.6 | 6.4 | 0.00 | 0.00 | 0.00 | 70 | 1016.2 |
| 20260505012025 | 24 | 333 | 1.6 | 6.4 | 0.00 | 0.00 | 0.00 | 69 | 1016.1 |
| 20260505011504 | 24 | 347 | 1.6 | 6.4 | 0.00 | 0.00 | 0.00 | 68 | 1016.2 |
| 20260505011004 | 25 | 8 | 3.2 | 6.4 | 0.00 | 0.00 | 0.00 | 68 | 1016.1 |
| 20260505010504 | 25 | 13 | 3.2 | 9.7 | 0.00 | 0.00 | 0.00 | 67 | 1016.3 |
| 20260505010005 | 25 | 359 | 3.2 | 9.7 | 0.00 | 0.00 | 0.00 | 67 | 1015.8 |
| 20260505005504 | 25 | 356 | 3.2 | 9.7 | 0.00 | 0.00 | 0.00 | 68 | 1015.8 |
| 20260505005025 | 25 | 3 | 3.2 | 9.7 | 0.00 | 0.00 | 0.00 | 67 | 1015.9 |
| 20260505004504 | 25 | 5 | 3.2 | 9.7 | 0.00 | 0.00 | 0.00 | 67 | 1015.8 |
| 20260505004004 | 25 | 12 | 3.2 | 8.0 | 0.00 | 0.00 | 0.00 | 67 | 1015.6 |
| 20260505003504 | 25 | 6 | 3.2 | 8.0 | 0.00 | 0.00 | 0.00 | 67 | 1015.5 |
| 20260505003004 | 25 | 346 | 3.2 | 9.7 | 0.00 | 0.00 | 0.00 | 67 | 1015.6 |
| 20260505002504 | 25 | 354 | 3.2 | 16.1 | 0.00 | 0.00 | 0.00 | 66 | 1015.3 |
| 20260505002004 | 25 | 2 | 3.2 | 16.1 | 0.00 | 0.00 | 0.00 | 65 | 1015.3 |
| 20260505001504 | 26 | 5 | 3.2 | 11.3 | 0.00 | 0.00 | 0.00 | 64 | 1015.2 |
| 20260505001004 | 26 | 8 | 1.6 | 6.4 | 0.00 | 0.00 | 0.00 | 64 | 1014.9 |
| 20260505000504 | 26 | 352 | 1.6 | 8.0 | 0.00 | 0.00 | 0.00 | 64 | 1015.1 |
| 20260505000026 | 26 | 353 | 3.2 | 8.0 | 0.00 | 0.00 | 0.00 | 64 | 1014.6 |
| 20260504235504 | 26 | 346 | 1.6 | 9.7 | 0.00 | 0.00 | 0.00 | 63 | 1014.8 |
| 20260504235004 | 26 | 360 | 1.6 | 9.7 | 0.00 | 0.00 | 0.00 | 63 | 1014.9 |
| 20260504234504 | 26 | 21 | 3.2 | 9.7 | 0.00 | 0.00 | 0.00 | 62 | 1014.9 |
| 20260504234025 | 26 | 14 | 3.2 | 9.7 | 0.00 | 0.00 | 0.00 | 62 | 1014.8 |
| 20260504233504 | 26 | 7 | 3.2 | 8.0 | 0.00 | 0.00 | 0.00 | 62 | 1014.7 |
| 20260504233004 | 26 | 9 | 3.2 | 11.3 | 0.00 | 0.00 | 0.00 | 62 | 1014.4 |
| 20260504232504 | 26 | 12 | 3.2 | 11.3 | 0.00 | 0.00 | 0.00 | 61 | 1014.4 |
| 20260504232025 | 27 | 20 | 3.2 | 9.7 | 0.00 | 0.00 | 0.00 | 60 | 1014.5 |
| 20260504231504 | 27 | 30 | 3.2 | 9.7 | 0.00 | 0.00 | 0.00 | 60 | 1014.4 |
| 20260504231004 | 27 | 16 | 3.2 | 9.7 | 0.00 | 0.00 | 0.00 | 59 | 1014.2 |
| 20260504230504 | 27 | 356 | 4.8 | 9.7 | 0.00 | 0.00 | 0.00 | 59 | 1014.1 |
| 20260504230005 | 27 | 359 | 4.8 | 9.7 | 0.00 | 0.00 | 0.00 | 58 | 1014.2 |
| 20260504225504 | 27 | 11 | 4.8 | 9.7 | 0.00 | 0.00 | 0.00 | 57 | 1014.0 |
| 20260504225004 | 28 | 16 | 3.2 | 9.7 | 0.00 | 0.00 | 0.00 | 57 | 1014.3 |
| 20260504224504 | 28 | 15 | 1.6 | 6.4 | 0.00 | 0.00 | 0.00 | 56 | 1014.2 |
| 20260504224025 | 28 | 2 | 3.2 | 6.4 | 0.00 | 0.00 | 0.00 | 56 | 1014.3 |
| 20260504223504 | 28 | 6 | 3.2 | 8.0 | 0.00 | 0.00 | 0.00 | 56 | 1014.3 |
| 20260504223004 | 28 | 24 | 3.2 | 9.7 | 0.00 | 0.00 | 0.00 | 54 | 1014.2 |
| 20260504222526 | 28 | 27 | 3.2 | 9.7 | 0.00 | 0.00 | 0.00 | 54 | 1014.3 |
| 20260504222004 | 28 | 19 | 3.2 | 9.7 | 0.00 | 0.00 | 0.00 | 54 | 1014.3 |
| 20260504221505 | 29 | 19 | 3.2 | 11.3 | 0.00 | 0.00 | 0.00 | 53 | 1014.3 |
| 20260504221025 | 29 | 11 | 1.6 | 11.3 | 0.00 | 0.00 | 0.00 | 54 | 1014.3 |
| 20260504220504 | 29 | 354 | 1.6 | 6.4 | 0.00 | 0.00 | 0.00 | 53 | 1014.3 |
| 20260504220004 | 28 | 11 | 1.6 | 6.4 | 0.00 | 0.00 | 0.00 | 52 | 1014.3 |
| 20260504215504 | 28 | 24 | 3.2 | 8.0 | 0.00 | 0.00 | 0.00 | 53 | 1014.4 |
| 20260504215026 | 28 | 24 | 3.2 | 8.0 | 0.00 | 0.00 | 0.00 | 52 | 1014.3 |
| 20260504214525 | 28 | 7 | 3.2 | 9.7 | 0.00 | 0.00 | 0.00 | 51 | 1014.1 |
| 20260504214004 | 28 | 357 | 3.2 | 9.7 | 0.00 | 0.00 | 0.00 | 52 | 1014.2 |
| 20260504213504 | 28 | 14 | 4.8 | 11.3 | 0.00 | 0.00 | 0.00 | 52 | 1014.3 |
| 20260504213004 | 29 | 22 | 3.2 | 11.3 | 0.00 | 0.00 | 0.00 | 52 | 1014.3 |
| 20260504212504 | 30 | 13 | 3.2 | 9.7 | 0.00 | 0.00 | 0.00 | 52 | 1014.2 |
| 20260504212004 | 29 | 10 | 3.2 | 9.7 | 0.00 | 0.00 | 0.00 | 52 | 1014.5 |
| 20260504211525 | 29 | 6 | 3.2 | 8.0 | 0.00 | 0.00 | 0.00 | 49 | 1014.2 |
| 20260504211004 | 30 | 14 | 1.6 | 8.0 | 0.00 | 0.00 | 0.00 | 50 | 1014.2 |
| 20260504210504 | 30 | 24 | 3.2 | 8.0 | 0.00 | 0.00 | 0.00 | 50 | 1014.5 |
| 20260504210006 | 30 | 25 | 3.2 | 9.7 | 0.00 | 0.00 | 0.00 | 50 | 1014.5 |
| 20260504205504 | 30 | 21 | 1.6 | 9.7 | 0.00 | 0.00 | 0.00 | 49 | 1014.5 |
| 20260504205004 | 29 | 16 | 1.6 | 6.4 | 0.00 | 0.00 | 0.00 | 50 | 1014.6 |
| 20260504204504 | 29 | 19 | 3.2 | 6.4 | 0.00 | 0.00 | 0.00 | 50 | 1014.5 |
| 20260504204025 | 30 | 23 | 3.2 | 8.0 | 0.00 | 0.00 | 0.00 | 50 | 1014.6 |
| 20260504203504 | 30 | 18 | 3.2 | 8.0 | 0.00 | 0.00 | 0.00 | 49 | 1014.6 |
| 20260504203004 | 29 | 14 | 3.2 | 8.0 | 0.00 | 0.00 | 0.00 | 49 | 1014.7 |
| 20260504202525 | 30 | 16 | 4.8 | 12.9 | 0.00 | 0.00 | 0.00 | 50 | 1014.6 |
| 20260504202004 | 30 | 22 | 4.8 | 12.9 | 0.00 | 0.00 | 0.00 | 49 | 1014.7 |
| 20260504201504 | 30 | 43 | 3.2 | 8.0 | 0.00 | 0.00 | 0.00 | 47 | 1014.7 |
| 20260504201025 | 31 | 24 | 1.6 | 9.7 | 0.00 | 0.00 | 0.00 | 46 | 1014.7 |
| 20260504200525 | 30 | 14 | 3.2 | 16.1 | 0.00 | 0.00 | 0.00 | 48 | 1014.8 |
| 20260504200004 | 30 | 15 | 3.2 | 16.1 | 0.00 | 0.00 | 0.00 | 48 | 1014.8 |
| 20260504195505 | 30 | 21 | 3.2 | 6.4 | 0.00 | 0.00 | 0.00 | 48 | 1014.8 |
| 20260504195004 | 31 | 17 | 3.2 | 9.7 | 0.00 | 0.00 | 0.00 | 46 | 1014.9 |
| 20260504194504 | 30 | 18 | 4.8 | 14.5 | 0.00 | 0.00 | 0.00 | 49 | 1015.1 |
| 20260504194004 | 30 | 18 | 3.2 | 14.5 | 0.00 | 0.00 | 0.00 | 48 | 1015.2 |
| 20260504193525 | 30 | 11 | 3.2 | 14.5 | 0.00 | 0.00 | 0.00 | 47 | 1015.3 |
| 20260504193004 | 30 | 14 | 3.2 | 8.0 | 0.00 | 0.00 | 0.00 | 48 | 1015.0 |
| 20260504192504 | 29 | 24 | 3.2 | 11.3 | 0.00 | 0.00 | 0.00 | 50 | 1015.1 |
| 20260504192004 | 29 | 30 | 3.2 | 11.3 | 0.00 | 0.00 | 0.00 | 49 | 1015.3 |
| 20260504191504 | 30 | 26 | 3.2 | 8.0 | 0.00 | 0.00 | 0.00 | 48 | 1015.3 |
| 20260504191004 | 30 | 14 | 3.2 | 8.0 | 0.00 | 0.00 | 0.00 | 48 | 1015.4 |
| 20260504190504 | 30 | 5 | 3.2 | 8.0 | 0.00 | 0.00 | 0.00 | 48 | 1015.5 |
| 20260504190004 | 30 | 11 | 3.2 | 9.7 | 0.00 | 0.00 | 0.00 | 48 | 1015.8 |
| 20260504185504 | 30 | 22 | 3.2 | 9.7 | 0.00 | 0.00 | 0.00 | 49 | 1015.7 |
| 20260504185025 | 31 | 14 | 3.2 | 9.7 | 0.00 | 0.00 | 0.00 | 48 | 1015.7 |
| 20260504184504 | 30 | 358 | 3.2 | 9.7 | 0.00 | 0.00 | 0.00 | 49 | 1015.9 |
| 20260504184004 | 30 | 337 | 3.2 | 9.7 | 0.00 | 0.00 | 0.00 | 48 | 1015.9 |
| 20260504183504 | 30 | 347 | 3.2 | 9.7 | 0.00 | 0.00 | 0.00 | 46 | 1016.2 |
| 20260504183004 | 29 | 19 | 3.2 | 12.9 | 0.00 | 0.00 | 0.00 | 50 | 1016.0 |
| 20260504182504 | 28 | 22 | 4.8 | 12.9 | 0.00 | 0.00 | 0.00 | 51 | 1016.3 |
| 20260504182004 | 30 | 4 | 3.2 | 9.7 | 0.00 | 0.00 | 0.00 | 49 | 1016.4 |
| 20260504181505 | 29 | 9 | 3.2 | 11.3 | 0.00 | 0.00 | 0.00 | 51 | 1016.6 |
| 20260504181025 | 29 | 6 | 3.2 | 11.3 | 0.00 | 0.00 | 0.00 | 51 | 1016.6 |
| 20260504180504 | 28 | 350 | 3.2 | 9.7 | 0.00 | 0.00 | 0.00 | 51 | 1016.6 |
| 20260504180005 | 29 | 2 | 3.2 | 9.7 | 0.00 | 0.00 | 0.00 | 52 | 1016.6 |
| 20260504175504 | 28 | 21 | 3.2 | 8.0 | 0.00 | 0.00 | 0.00 | 53 | 1016.7 |
| 20260504175004 | 29 | 5 | 3.2 | 9.7 | 0.00 | 0.00 | 0.00 | 51 | 1016.7 |
| 20260504174504 | 28 | 356 | 3.2 | 9.7 | 0.00 | 0.00 | 0.00 | 51 | 1016.8 |
| 20260504174004 | 29 | 359 | 3.2 | 9.7 | 0.00 | 0.00 | 0.00 | 51 | 1016.9 |
| 20260504173504 | 29 | 350 | 3.2 | 9.7 | 0.00 | 0.00 | 0.00 | 52 | 1016.8 |
| 20260504173004 | 29 | 11 | 3.2 | 9.7 | 0.00 | 0.00 | 0.00 | 50 | 1016.6 |
| 20260504172525 | 29 | 27 | 3.2 | 9.7 | 0.00 | 0.00 | 0.00 | 52 | 1017.1 |
| 20260504172004 | 29 | 359 | 3.2 | 11.3 | 0.00 | 0.00 | 0.00 | 49 | 1017.1 |
| 20260504171505 | 28 | 354 | 3.2 | 11.3 | 0.00 | 0.00 | 0.00 | 52 | 1017.4 |
| 20260504171004 | 28 | 351 | 3.2 | 9.7 | 0.00 | 0.00 | 0.00 | 51 | 1017.1 |
| 20260504170525 | 28 | 3 | 3.2 | 12.9 | 0.00 | 0.00 | 0.00 | 52 | 1017.4 |
| 20260504151025 | 27 | 352 | 3.2 | 9.7 | 0.00 | 0.00 | 0.00 | 54 | 1018.0 |
| 20260504150504 | 27 | 357 | 3.2 | 9.7 | 0.00 | 0.00 | 0.00 | 54 | 1018.0 |
| 20260504141004 | 25 | 1 | 4.8 | 11.3 | 0.00 | 0.00 | 0.00 | 61 | 1017.8 |
| 20260504140504 | 25 | 2 | 4.8 | 11.3 | 0.00 | 0.00 | 0.00 | 61 | 1017.9 |
| 20260504130526 | 22 | 310 | 1.6 | 9.7 | 0.00 | 0.00 | 0.00 | 71 | 1017.6 |